This is the latest recevied weather packets stored in our database for station/object KA3BQE-13. If no packets are shown the sender has not sent any weather packets the latest 10 day(s).
| Time | Temp. | Humidity | Pressure | Rain* | Wind** | Luminosity | Snow |
|---|---|---|---|---|---|---|---|
| 1778008227 | 11.11° C | 83% | 1012.2 hPa | 0.51 mm | - | 88 W/m² | - |
| 1778007926 | 11.11° C | 82% | 1012.3 hPa | 0.51 mm | - | 96 W/m² | - |
| 1778007623 | 11.67° C | 80% | 1012.3 hPa | 0 mm | - | 102 W/m² | - |
| 1778007319 | 11.11° C | 77% | 1012.3 hPa | 0 mm | - | 108 W/m² | - |
| 1778007016 | 11.67° C | 78% | 1012.4 hPa | 0 mm | - | 111 W/m² | - |
| 1778006713 | 11.67° C | 77% | 1012.3 hPa | 0 mm | - | 124 W/m² | - |
| 1778006409 | 11.67° C | 76% | 1012 hPa | 0 mm | - | 141 W/m² | - |
| 1778006106 | 11.67° C | 75% | 1011.9 hPa | 0 mm | - | 164 W/m² | - |
| 1778005803 | 11.67° C | 73% | 1012 hPa | 0 mm | - | 179 W/m² | - |
| 1778005500 | 12.22° C | 72% | 1012 hPa | 0 mm | - | 196 W/m² | - |
| 1778005196 | 12.22° C | 74% | 1012 hPa | 0 mm | - | 217 W/m² | - |
| 1778004888 | 12.22° C | 73% | 1012 hPa | 0 mm | - | 243 W/m² | - |
| 1778004585 | 12.22° C | 75% | 1012.1 hPa | 0 mm | - | 265 W/m² | - |
| 1778004281 | 11.67° C | 74% | 1012.1 hPa | 0 mm | - | 261 W/m² | - |
| 1778003978 | 12.22° C | 72% | 1011.9 hPa | 0 mm | - | 251 W/m² | - |
| 1778003673 | 12.22° C | 70% | 1012 hPa | 0 mm | - | 289 W/m² | - |
| 1778003370 | 12.22° C | 75% | 1012.1 hPa | 0 mm | - | 440 W/m² | - |
| 1778003063 | 12.78° C | 69% | 1011.9 hPa | 0 mm | - | 609 W/m² | - |
| 1778002758 | 12.78° C | 72% | 1012 hPa | 0 mm | - | 650 W/m² | - |
| 1778002455 | 11.67° C | 73% | 1012 hPa | 0 mm | - | 644 W/m² | - |
| 1778002152 | 11.67° C | 72% | 1012 hPa | 0 mm | - | 386 W/m² | - |
| 1778001850 | 11.67° C | 70% | 1012.3 hPa | 0 mm | - | 364 W/m² | - |
| 1778001549 | 12.22° C | 77% | 1012.2 hPa | 0 mm | - | 364 W/m² | - |
| 1778001247 | 11.67° C | 70% | 1012.1 hPa | 0 mm | - | 396 W/m² | - |
| 1778000943 | 11.67° C | 72% | 1011.7 hPa | 0 mm | - | 333 W/m² | - |
* Rain latest hour (hover to see other rain measurements)
** Current wind speed in m/s (hover to see current wind gust speed)